Home   Weather   Orlando   Past weeks

Flag for USA Past Weather in Orlando, Florida, USA — Yesterday and Last 2 Weeks

Now
66 °F

Clear.


Feels Like: 66 °F
Forecast: 63 / 81 °F
Wind: No wind

Location: Orlando Executive Airport

Current Time: Feb 25, 2017 at 2:09:58 am

Latest Report: Feb 25, 2017 at 12:53 am


Visibility: 10 mi

Pressure: 29.87 "Hg

Humidity: 93%

Dew Point: 64 °F

Location of OrlandoLocation

Past Weather in Orlando — Graph

°F

Orlando Temperature Yesterday

Maximum temperature yesterday: 81 °F (at 12:53 pm)
Minimum temperature yesterday: 66 °F (at 3:00 am)
Average temperature yesterday: 71 °F

High & Low Weather Summary for the Past Weeks

 TemperatureHumidityPressure
High82 °F (Feb 20, 2:53 pm)100% (Feb 20, 7:53 am)30.44 "Hg (Feb 20, 7:53 am)
Low49 °F (Feb 17, 6:53 am)23% (Feb 16, 3:53 pm)29.57 "Hg (Feb 23, 2:53 am)
Average68 °F72%30.00 "Hg
* Reported Feb 10 12:53 am — Feb 25 12:53 am, Orlando, Weather by CustomWeather, © 2017

Note: Actual official high and low records may vary slightly from our data, if they occured in-between our weather recording intervals... More about our weather records

Advertising

Orlando Weather History for the Previous 24 Hours

Scroll right to see more
 ConditionsComfort  
Time TempWeatherWind HumidityBarometerVisibility
12:53 am
Sat, Feb 25
66 °FClear.No wind93%29.87 "Hg10 mi
11:53 pm
Fri, Feb 24
66 °FClear.No wind93%29.88 "Hg10 mi
10:53 pm66 °FClear.6 mph90%29.88 "Hg10 mi
9:53 pm69 °FClear.8 mph84%29.88 "Hg10 mi
8:53 pm69 °FClear.6 mph81%29.88 "Hg10 mi
7:53 pm71 °FClear.7 mph76%29.86 "Hg10 mi
6:53 pm73 °FClear.7 mph71%29.83 "Hg10 mi
5:53 pm76 °FPassing clouds.12 mph62%29.82 "Hg10 mi
4:53 pm80 °FScattered clouds.13 mph54%29.80 "Hg10 mi
3:53 pm80 °FPartly sunny.10 mph54%29.79 "Hg10 mi
2:53 pm81 °FPartly sunny.13 mph53%29.80 "Hg10 mi
1:53 pm81 °FPartly sunny.13 mph53%29.80 "Hg10 mi
12:53 pm81 °FPartly sunny.13 mph53%29.82 "Hg10 mi
11:53 am78 °FBroken clouds.7 mph64%29.84 "Hg10 mi
10:53 am76 °FPartly sunny.13 mph69%29.85 "Hg10 mi
10:16 am75 °FPartly sunny.9 mph71%29.84 "Hg10 mi
9:53 am74 °FSunny.12 mph76%29.84 "Hg10 mi
8:53 am70 °FScattered clouds.7 mph84%29.83 "Hg10 mi
7:53 am68 °FLow clouds.9 mph90%29.81 "Hg10 mi
6:53 am67 °FLow clouds.6 mph93%29.80 "Hg10 mi
5:53 am67 °FLow clouds.9 mph90%29.78 "Hg10 mi
4:53 am66 °FLow clouds.8 mph93%29.77 "Hg10 mi
4:36 am66 °FPassing clouds.7 mph93%29.76 "Hg10 mi
4:19 am66 °FPartly cloudy.7 mph93%29.75 "Hg10 mi
3:53 am66 °FLow clouds.8 mph93%29.76 "Hg10 mi
3:37 am66 °FPassing clouds.7 mph93%29.75 "Hg10 mi
3:00 am66 °FPassing clouds.8 mph93%29.74 "Hg10 mi
2:34 am67 °FPartly cloudy.9 mph90%29.74 "Hg10 mi
Weather by CustomWeather, © 2017

See weather overviewHow to use our weather pages